#timestamp,LO_Frequency,Hit,StdDev 
1586203215.9,286047000.9,N
1586203235.7,286047001.9,N
1586203255.6,286047001.2,N
1586203275.4,286046998.3,N
1586203295.2,286046998.5,N
1586203315.1,286046996.6,N
1586203316.0,286046996.6,N
1586203335.8,286047002.5,N
1586203355.7,286047002.6,N
1586203375.5,286047000.9,N
1586203395.3,286047001.4,N
1586203415.2,286047005.8,N
1586203435.0,286047003.7,N
1586203435.9,286047003.7,N
1586203455.7,286047006.0,N
1586203475.6,286047003.7,N
1586203495.4,286047001.7,N
1586203515.3,286047002.2,N
1586203535.1,286047003.0,N
1586203555.8,286047006.0,N
1586203575.7,286047003.8,N
1586203595.5,286047002.0,N
1586203615.4,286047001.3,N
1586203635.2,286047002.7,N
1586203655.0,286047000.3,N
1586203655.9,286047000.3,N
1586203675.8,286047002.5,N
1586203695.6,286047001.0,N
1586203715.5,286047002.7,N
1586203735.3,286047000.1,N
1586203755.1,286047002.4,N
1586203775.9,286047001.5,N
1586203795.7,286047004.1,N
1586203815.5,286047002.5,N
1586203835.4,286047000.4,N
1586203855.2,286046999.9,N
1586203875.1,286047004.0,N
1586203876.0,286047004.0,N
1586203895.8,286047005.4,Y
1586203915.6,286047001.9,P
1586203935.5,286047000.5,N
1586203955.3,286046996.9,P
1586203975.2,286047000.3,N
1586203995.9,286047002.2,N
1586204015.7,286047001.9,N
1586204035.6,286047002.7,N
1586204055.4,286047000.5,N
1586204075.3,286046999.0,N
1586204095.1,286046999.1,N
1586204096.0,286046999.1,N
1586204115.8,286047000.2,N
1586204135.7,286046999.1,N
1586204155.5,286047000.5,N
1586204175.3,286047000.1,N
1586204195.2,286047002.5,N
1586204215.0,286047001.8,N
1586204215.9,286047001.8,N
1586204235.8,286046998.9,N
1586204255.6,286046998.2,N
1586204275.4,286046998.6,N
1586204295.3,286047000.3,N
1586204315.1,286047002.7,N
1586204335.9,286046999.4,N
1586204355.7,286047002.6,N
1586204375.5,286047003.0,N
1586204395.4,286047001.5,N
1586204415.2,286046999.5,N
1586204435.0,286046999.1,N
1586204435.9,286046999.1,N
1586204455.8,286046996.8,N
1586204475.6,286046997.9,N
1586204495.5,286046998.8,N
1586204515.3,286046999.4,N
1586204535.1,286047000.7,N
1586204555.9,286046999.5,N
1586204575.7,286047000.0,N
1586204595.6,286047002.8,N
1586204615.4,286047001.8,N
1586204635.2,286047001.4,N
1586204655.1,286047001.6,N
1586204656.0,286047001.6,N
1586204675.8,286047002.1,N
1586204695.7,286047003.0,N
1586204715.5,286047002.1,N
1586204735.3,286047002.2,N
1586204755.2,286047000.7,N
1586204775.0,286046998.2,N
1586204775.9,286046998.2,N
1586204795.8,286046997.0,N
1586204815.6,286046996.8,N
1586204835.4,286046995.2,N
1586204855.3,286046997.4,N
1586204875.1,286046997.8,N
1586204895.9,286046999.5,N
1586204915.7,286046999.6,N
1586204935.5,286046996.9,N
1586204955.4,286046996.5,N
1586204975.2,286046997.5,N
1586204995.1,286046995.8,N
1586204996.0,286046995.8,N
1586205015.8,286046995.6,N
1586205035.6,286046997.6,N
1586205055.5,286046996.0,N
1586205075.3,286046996.1,N
1586205095.1,286046993.5,N
1586205115.9,286046993.5,N
1586205135.7,286046994.7,N
1586205155.6,286046994.3,N
1586205175.4,286046992.2,N
1586205195.2,286046990.1,Y
1586205215.1,286046993.6,P
1586205216.0,286046993.6,P
1586205235.8,286046993.8,P
1586205255.7,286046994.2,Y
1586205275.5,286046999.1,P
1586205295.3,286046999.2,N
1586205315.2,286046997.5,N
1586205335.0,286046995.5,N
1586205335.9,286046995.5,N
1586205355.8,286046997.8,N
1586205375.6,286046996.7,N
1586205395.4,286046997.2,N
1586205415.3,286046997.0,N
1586205435.1,286046997.4,N
1586205455.8,286046997.9,N
1586205475.7,286046997.9,N
1586205495.5,286046996.3,N
1586205515.4,286046994.0,Y
1586205535.2,286046997.5,P
1586205555.0,286046996.2,P
1586205555.9,286046996.2,P
1586205575.8,286046995.7,Y
1586205595.6,286046999.0,P
1586205615.5,286046998.0,N
1586205635.3,286046997.4,N
1586205655.1,286046998.7,N
1586205675.9,286046999.3,N
1586205695.7,286046999.5,N
1586205715.6,286046999.3,N
1586205735.4,286046998.5,N
1586205755.2,286046998.3,N
1586205775.1,286046999.4,N
1586205776.0,286046999.4,N
1586205795.8,286046998.4,N
1586205815.7,286046996.6,Y
1586205835.5,286047001.0,P
1586205855.3,286047000.5,N
1586205875.2,286046999.9,N
1586205895.0,286047002.0,N
1586205895.9,286047002.0,N
1586205915.7,286046999.9,N
1586205935.6,286047000.7,N
1586205955.4,286046999.2,N
1586205975.3,286046998.5,N
1586206025.1,286047004.3,E
1586206035.1,286047001.1,N
1586206036.0,286047001.1,P
1586206055.8,286046996.6,P
1586206075.6,286046996.7,N
1586206095.5,286046997.7,N
1586206115.3,286046996.5,N
1586206135.1,286046997.4,N
1586206155.9,286046995.3,N
1586206175.7,286046995.6,N
1586206195.6,286046995.3,N
1586206215.4,286046997.5,N
1586206235.2,286046995.4,N
1586206255.1,286046994.1,Y
1586206256.0,286046994.1,P
1586206275.8,286046996.5,N
1586206295.7,286047000.3,N
1586206315.5,286047002.6,N
1586206335.3,286047002.7,N
1586206355.2,286047001.4,N
1586206375.0,286047001.1,N
1586206375.9,286047001.1,N
1586206395.8,286046998.1,N
1586206415.6,286046998.3,N
1586206435.4,286046998.9,N
1586206455.3,286046999.8,N
1586206475.1,286047004.2,N
1586206495.8,286047003.2,N
1586206515.7,286047001.4,N
1586206535.5,286047002.1,N
1586206555.4,286047004.1,N
1586206575.2,286047003.1,N
1586206595.0,286047004.4,N
1586206595.9,286047004.4,N
1586206615.8,286047003.9,N
1586206635.6,286047005.5,N
1586206655.4,286047005.3,N
1586206675.3,286047003.6,N
1586206695.1,286047002.9,N
1586206715.9,286047005.9,N
1586206735.7,286047002.1,N
1586206755.5,286047003.0,N
1586206775.4,286047007.6,N
1586206795.2,286047006.1,N
